{"data":{"norad_id":69434,"epoch":"2026-09-20T03:05:18.206016Z","epoch_age_seconds":57506,"freshness":"FRESH","line1":"1 69434U 26126Q   26263.12868294  .00005889  00000+0  18463-3 0  9996","line2":"2 69434  97.2850 124.3100 0001668  94.1109 266.0325 15.33440845 17464","mean_motion":15.33440845,"eccentricity":0.0001668,"inclination_deg":97.285,"raan_deg":124.31,"arg_perigee_deg":94.1109,"mean_anomaly_deg":266.0325,"bstar":0.00018463,"rev_number":1746,"period_min":93.906459104394,"perigee_km":464.4140089476,"apogee_km":466.6970647779,"semimajor_km":6843.6925368628,"source":"CELESTRAK","updated_at":"2026-09-20T09:00:44.197028Z"}}